map of ABT home
Great Circle Mapper logo
ABT - Airport
Location
City:  Al Baha, Saudi Arabia
ICAO / IATA:OEBA / ABT

Details
Type:Airport (Aerodrome, Airfield)
Latitude:2017'46"N (20.296139)
Longitude:4138'03"E (41.634277)
Datum:WGS 1984
Elevation:5486 ft (1672 m)
Variation:2.97E (WMM2015 magnetic declination)
0.05 annual change
Runways:1
Longest:10991 × 148 ft (3350 × 45 m), paved

Time
Time Zone:UTC+3
Local Time:

Weather
METAR:OEBA 061300Z 17008KT 9999 SCT030 26/05 Q1021 NOSIG
TAF:OEBA 052230Z 0600/0706 13010KT 7000 FEW030
BECMG 0609/0611 23014KT 9999 SCT030
TEMPO 0611/0616 FEW028CB

Related Locations
Nearby:
Farthest:ZTA: 12435 mi / 20012 km
Tureia, PF

Find:

   beyond  
but within

Other Information
Maps:
NOTAMs:
Links:
Sources:

  
flag of Saudi Arabia   

Sectional Chart

Flight Planning
at skyvector.com

Satellite Image

Google Maps Satellite View

 

Copyright © 2004-2015 Karl L. Swartz. All rights reserved.
The Great Circle Mapper name and logo are trademarks of the Great Circle Mapper.
All other trademarks mentioned herein belong to their respective owners.
Please see credits for attibutions and further copyright information.

  Follow gcmap on Facebook Follow gcmap on Twitter Follow gcmap on Google+

hCard Microformat

Geo Microformat